Content
SEND FEEDBACK

Daily
Averages
Monthly
Summary
United States of America

VERMILLION, SOUTH DAKOTA


Home > North America > United States > South Dakota
Elevation: 1188 feet     Latitude: 42 45N     Longitude: 096 55W

WEATHER
 
SELECT A DAY
Number of Records: 456,311;   Date Range: 1/1/95 - 7/26/14
 
SHARE

PRINT THIS DATA

[ ← Previous Day ]
WEATHER ALMANAC - JANUARY 31, 2013
[ Next Day → ]
[ °C ]   °F
Weather ElementAverageHighLow
Temperature-0.5 °F3.2 °F (12:35 am)-4 °F (10:15 pm)
Dewpoint-8.7 °F (9:15 am)-11.2 °F (11:15 am)
Humidity68.1 %85 % (7:15 pm)56 % (3:35 pm)
Barometer30.21 in30.36 in (6:55 pm)29.95 in (12:35 am)
Wind Speed17.7 mph29.9 mph (8:55 am)
Wind Gust40.3 mph (9:55 am)
Weather ElementAverage
Visibility9.2 mi
Wind DirectionWNW (295.3 °)

Weather ElementTotal
Precipitation---
Heating Degree Days65.4 (Base 65)
Averaged from 70 records on January 31, 2013
WEATHER CONDITIONS BREAKOUT
WIND DIRECTION BREAKOUT
WEATHER BY HOUR - JANUARY 31, 2013
[ °C ]   °F
Local TimeTemperatureDewpointHumidityBarometerVisibilityWind DirectionWind SpeedGust SpeedPrecipitationEventsConditions
12:35 AM3.2 °F-7.6 °F61 %29.95 in10.0 miWNW (300°)15.0 mph25.3 mphClear
12:55 AM3.2 °F-5.8 °F66 %29.96 in10.0 miNW (310°)13.8 mph20.7 mphClear
1:15 AM1.4 °F-7.6 °F66 %29.96 in10.0 miNW (310°)12.7 mph20.7 mphClear
1:35 AM1.4 °F-5.8 °F72 %29.96 in10.0 miNW (310°)12.7 mphClear
1:55 AM1.4 °F-7.6 °F66 %29.97 in10.0 miWNW (290°)16.1 mphClear
2:15 AM1.4 °F-5.8 °F72 %29.97 in10.0 miWNW (290°)15.0 mph19.6 mphScattered Clouds
2:35 AM1.4 °F-7.6 °F66 %29.97 in10.0 miWNW (300°)17.3 mph20.7 mphOvercast
2:55 AM1.4 °F-7.6 °F66 %29.97 in10.0 miWNW (300°)15.0 mph19.6 mphMostly Cloudy
3:15 AM1.4 °F-7.6 °F66 %29.99 in10.0 miWNW (300°)19.6 mph23.0 mphPartly Cloudy
3:35 AM1.4 °F-7.6 °F66 %29.99 in10.0 miWNW (300°)19.6 mph24.2 mphMostly Cloudy
3:55 AM1.4 °F-7.6 °F66 %30.00 in10.0 miWNW (300°)17.3 mphScattered Clouds
4:15 AM1.4 °F-7.6 °F66 %30.01 in10.0 miNW (310°)18.4 mph21.9 mphClear
4:35 AM1.4 °F-9.4 °F61 %30.02 in10.0 miWNW (300°)17.3 mph23.0 mphClear
4:55 AM1.4 °F-7.6 °F66 %30.03 in10.0 miWNW (290°)21.9 mph25.3 mphClear
5:15 AM-0.4 °F-9.4 °F66 %30.04 in10.0 miNW (310°)18.4 mphClear
5:35 AM-0.4 °F-7.6 °F72 %30.05 in10.0 miWNW (300°)19.6 mph25.3 mphClear
5:55 AM-0.4 °F-9.4 °F66 %30.05 in10.0 miWNW (300°)19.6 mphClear
6:15 AM-0.4 °F-7.6 °F72 %30.07 in7.0 miNW (310°)16.1 mph21.9 mphClear
6:35 AM-0.4 °F-5.8 °F78 %30.08 in8.0 miWNW (300°)15.0 mphClear
6:55 AM-0.4 °F-7.6 °F72 %30.08 in5.0 miNW (310°)17.3 mphPartly Cloudy
7:15 AM-0.4 °F-7.6 °F72 %30.10 in7.0 miNW (310°)16.1 mph23.0 mphScattered Clouds
7:35 AM-0.4 °F-7.6 °F72 %30.11 in4.0 miNW (320°)23.0 mph27.6 mphPartly Cloudy
7:55 AM-2.2 °F-7.6 °F78 %30.12 in3.0 miNW (310°)23.0 mphPartly Cloudy
8:15 AM-2.2 °F-9.4 °F71 %30.14 in7.0 miNW (320°)21.9 mph27.6 mphClear
8:35 AM-2.2 °F-9.4 °F71 %30.16 in10.0 miNW (310°)23.0 mph26.5 mphPartly Cloudy
8:55 AM-2.2 °F-7.6 °F78 %30.17 in7.0 miWNW (300°)29.9 mph34.5 mphPartly Cloudy
9:15 AM-2.2 °F0.0 °F30.19 in10.0 miNW (310°)27.6 mph38.0 mphClear
9:35 AM-2.2 °F-9.4 °F71 %30.21 in7.0 miNW (310°)23.0 mph32.2 mphClear
9:55 AM-2.2 °F-7.6 °F78 %30.22 in10.0 miNW (310°)29.9 mph40.3 mphClear
10:15 AM-0.4 °F-9.4 °F66 %30.23 in8.0 miWNW (300°)24.2 mph33.4 mphClear
10:35 AM-0.4 °F-7.6 °F72 %30.24 in2.5 miWNW (300°)25.3 mph28.8 mphMostly Cloudy
10:55 AM-0.4 °F-9.4 °F66 %30.26 in3.0 miWNW (300°)23.0 mph29.9 mphMostly Cloudy
11:15 AM-0.4 °F-11.2 °F60 %30.27 in7.0 miWNW (290°)20.7 mph28.8 mphScattered Clouds
11:35 AM-0.4 °F-7.6 °F72 %30.28 in10.0 miWNW (300°)23.0 mph29.9 mphClear
11:55 AM-0.4 °F-9.4 °F66 %30.28 in10.0 miWNW (290°)26.5 mph33.4 mphClear
12:15 PM-0.4 °F-9.4 °F66 %30.28 in10.0 miWNW (290°)27.6 mph33.4 mphClear
12:35 PM-0.4 °F-9.4 °F66 %30.28 in10.0 miWNW (300°)26.5 mph34.5 mphClear
12:55 PM1.4 °F-9.4 °F61 %30.29 in10.0 miNW (310°)25.3 mph36.8 mphClear
1:15 PM1.4 °F-7.6 °F66 %30.30 in10.0 miWNW (300°)25.3 mph34.5 mphClear
1:35 PM1.4 °F-9.4 °F61 %30.30 in10.0 miWNW (290°)25.3 mph33.4 mphClear
1:55 PM1.4 °F-9.4 °F61 %30.30 in8.0 miWNW (290°)25.3 mph36.8 mphPartly Cloudy
2:15 PM1.4 °F-9.4 °F61 %30.30 in10.0 miWNW (300°)24.2 mph31.1 mphPartly Cloudy
2:35 PM-0.4 °F-11.2 °F60 %30.31 in10.0 miNW (310°)23.0 mph27.6 mphClear
2:55 PM1.4 °F-9.4 °F61 %30.31 in10.0 miWNW (300°)25.3 mph29.9 mphClear
3:15 PM1.4 °F-9.4 °F61 %30.31 in10.0 miWNW (300°)24.2 mphClear
3:35 PM1.4 °F-11.2 °F56 %30.31 in10.0 miWNW (290°)20.7 mph26.5 mphClear
3:55 PM1.4 °F-9.4 °F61 %30.32 in10.0 miWNW (290°)24.2 mph27.6 mphClear
4:15 PM1.4 °F-11.2 °F56 %30.32 in10.0 miWNW (290°)19.6 mph25.3 mphClear
4:35 PM-0.4 °F-9.4 °F66 %30.32 in10.0 miWNW (300°)18.4 mph23.0 mphClear
4:55 PM-0.4 °F-11.2 °F60 %30.32 in10.0 miWNW (290°)21.9 mph26.5 mphClear
5:15 PM-0.4 °F-11.2 °F60 %30.33 in10.0 miWNW (290°)16.1 mph25.3 mphClear
5:35 PM-0.4 °F-11.2 °F60 %30.33 in10.0 miWNW (290°)17.3 mph23.0 mphClear
5:55 PM-2.2 °F-11.2 °F66 %30.33 in10.0 miWNW (290°)15.0 mphClear
6:15 PM-2.2 °F-9.4 °F71 %30.34 in10.0 miWNW (290°)13.8 mph17.3 mphClear
6:35 PM-2.2 °F-9.4 °F71 %30.35 in10.0 miWNW (290°)15.0 mphClear
6:55 PM-2.2 °F-9.4 °F71 %30.36 in10.0 miWNW (290°)12.7 mphClear
7:15 PM-2.2 °F-5.8 °F85 %30.36 in10.0 miWNW (290°)10.4 mphClear
7:35 PM-2.2 °F-11.2 °F66 %30.36 in10.0 miWNW (300°)11.5 mphClear
7:55 PM-2.2 °F-7.6 °F78 %30.36 in10.0 miWNW (290°)11.5 mphClear
8:15 PM-2.2 °F-11.2 °F66 %30.36 in10.0 miWNW (300°)12.7 mphClear
8:35 PM-2.2 °F-7.6 °F78 %30.36 in10.0 miWest (280°)8.1 mphClear
8:55 PM-2.2 °F-9.4 °F71 %30.36 in10.0 miWNW (290°)6.9 mphClear
9:15 PM-2.2 °F-9.4 °F71 %30.36 in10.0 miWNW (290°)4.6 mphClear
9:35 PM-2.2 °F-9.4 °F71 %30.36 in10.0 miWest (280°)4.6 mphClear
9:55 PM-2.2 °F-9.4 °F71 %30.35 in10.0 miWest (270°)3.5 mphClear
10:15 PM-4.0 °F-9.4 °F78 %30.35 in10.0 miWNW (300°)3.5 mphClear
10:35 PM-4.0 °F-11.2 °F71 %30.34 in10.0 miWest (260°)4.6 mphClear
10:55 PM-4.0 °F-9.4 °F78 %30.35 in10.0 miSW (230°)4.6 mphClear
11:15 PM-4.0 °F-9.4 °F78 %30.35 in10.0 miWSW (240°)4.6 mphClear
11:35 PM-4.0 °F-11.2 °F71 %30.35 in10.0 miWSW (240°)3.5 mphClear
Hourly data recorded from KYKN, located miles away from Vermillion, South Dakota







STORIES FROM OUR PARTNERS